NOAA 16 DEB

Satellite information

Favourite Embed

Satellite Type and Status

DEBRISIN ORBIT

Key statistics

Satellite NOAA 16 DEB at a glance.

Uptime

9159

Days in orbit

Revolutions

≈ 14.4

Per day

Orbit

SSO

Sun Synchronous Orbit

Inclination

98.9

Latest

Satellite identification and parameters

Extended collection of information and parameters for NOAA 16 DEB.

Object identification

Identified? True

Debris? True

Object name: NOAA 16 DEB

International designator: 2000-055BM

Object number (NORAD): 41130

Object ID (CCSDS): 41130

Country: UNITED STATES OF AMERICA (US)

Current information (Y/N): Y

RCS size: SMALL

Orbital parameters

Period: 100.148 minutes

Inclination: 98.9298 deg

SMA: 7143.671 km

Apoapsis: 779.811 km

Periapsis: 751.261 km

RAAN: 74.2255 deg

Eccentricy: 0.00199825

Argument of periapsis: 147.1114 deg

Mean anomaly: 213.1319 deg

Mean motion: 14.37873281 rev/day

Mean motion (dot): 0.00009449 rev/day2

B* drag term: 0.0031364545 1/REarth

Two-line elements (TLE)

Creation date: Oct. 19, 2025, 2:20 a.m.

Reference frame: TEME

Reference center: EARTH

Epoch: Oct. 18, 2025, 8:43 a.m. UTC

TLE line 0: 0 NOAA 16 DEB

TLE line 1: 1 41130U 00055BM 25291.36345229 .00009449 00000-0 31365-2 0 9998

TLE line 2: 2 41130 98.9298 74.2255 0019982 147.1114 213.1319 14.37873281512023

Live tracking on map

Real-time ground track for satellite NOAA 16 DEB.

In-orbit conjunctions

A list of the most updated potential collisions computed for object NOAA 16 DEB.

Target Orbit TCA Probability of collision Miss distance Type
COSMOS 1814 LEO 2025-09-01 23:00:56 0.0001979036 85.0 (m) PAYLOAD
RITE TARGET 1 SSO 2025-01-22 02:23:29 0.001396764 159.0 (m) PAYLOAD
CZ-6A DEB LEO 2025-01-13 03:56:06 0.0001713463 747.0 (m) DEBRIS
CZ-6A DEB LEO 2025-01-05 22:48:07 0.0001324781 428.0 (m) DEBRIS
COSMOS 407 LEO 2025-01-04 00:59:36 0.0003828878 158.0 (m) PAYLOAD

Associated space launch

The NOAA K, L and M POES satellites begin the fifth generation of improved environmental monitoring in support of NOAA missions. The instrument payload has significant improvements and additions/deletions. The instrument changes have effected the spacecraft subsystems and data formats.

NOAA 16 DEB was lifted into orbit during the mission ‘Titan II SLV | NOAA 16’, on board a Titan II SLV space rocket.

The launch took place on Sept. 21, 2000, 10:22 a.m. from Space Launch Complex 4W.

For more information about the launch, click the button.

Launch to space Titan II SLV | NOAA 16
Titan II SLV | NOAA 16

Agency: N/A

Status: Launch Successful

Launch date: Sept. 21, 2000, 10:22 a.m. UTC

Rocket: Titan II SLV

Launch pad: Space Launch Complex 4W

Location: Vandenberg SFB, CA, USA

...

Latest news about this satellite

There are no fresh news available about this satellite. Check back as we update our databases every day.


Newsletter sign-up

Weekly statistics, charts and insights to help you stay on top of the space industry.